Ionia, MI

3:01 PM EDT on June 23, 2017 (GMT -0400)
Ionia

Weather History for KY70 - February, 2013

Change the Weather History Date:

Thursday, February 14, 2013

  Actual Average (KGRR) Record (KGRR)
Temperature  
Mean Temperature 37 °F -  
Max Temperature 42 °F 31 °F 53 °F (1918)
Min Temperature 32 °F 17 °F -24 °F (1899)
Degree Days  
Heating Degree Days 28    
Moisture  
Dew Point 30 °F    
Average Humidity 77    
Maximum Humidity 84    
Minimum Humidity 64    
Precipitation  
Precipitation 0.00 in - - ()
Sea Level Pressure  
Sea Level Pressure 29.69 in    
Wind  
Wind Speed 10 mph (SW)    
Max Wind Speed 25 mph    
Max Gust Speed 32 mph    
Visibility 7 miles    
Events Rain , Snow    
Averages and records for this station are not official NWS values.
T = Trace of Precipitation, MM = Missing Value Source: NWS Daily Summary

Daily Weather History Graph

Daily Weather History Graph

Search for Another Location

Airport or City:

Trip Planner

Search our weather history database for the weather conditions in past years. The results will help you decide how hot, cold, wet, or windy it might be!

Date:

Astronomy

Feb. 14, 2013 Rise Set
Actual Time 7:38 AM EST 6:10 PM EST
Civil Twilight 7:09 AM EST 6:39 PM EST
Nautical Twilight 6:36 AM EST 7:13 PM EST
Astronomical Twilight 6:03 AM EST 7:46 PM EST
Moon 9:31 AM EST (2/14) 11:22 PM EST (2/14)
Length of Visible Light 11h 30m
Length of Day
10h 32m
Waxing Crescent, 21% of the Moon is Illuminated
Feb 14
Waxing Crescent
Feb 17
First Quarter
Feb 25
Full
Mar 4
Last Quarter
Mar 11
New

Hourly Weather History & Observations

Time (EST) Temp. Windchill Dew Point Humidity Pressure Visibility Wind Dir Wind Speed Gust Speed Precip Events Conditions
12:13 AM 33.8 °F 27.7 °F 25.9 °F 73% 29.71 in 7.0 mi South 6.9 mph - N/A   Mostly Cloudy
12:34 AM 34.7 °F 28.8 °F 26.2 °F 71% 29.71 in 7.0 mi SSW 6.9 mph - N/A   Overcast
12:53 AM 34.7 °F 28.8 °F 26.4 °F 72% 29.71 in 7.0 mi SSW 6.9 mph - N/A   Overcast
1:14 AM 33.8 °F 28.6 °F 26.6 °F 75% 29.71 in 7.0 mi SSW 5.8 mph - N/A   Mostly Cloudy
1:33 AM 33.8 °F 27.7 °F 26.6 °F 75% 29.71 in 7.0 mi SW 6.9 mph - N/A   Scattered Clouds
1:54 AM 33.3 °F 27.9 °F 26.6 °F 77% 29.71 in 7.0 mi SW 5.8 mph - N/A   Clear
2:13 AM 33.8 °F 28.6 °F 27.3 °F 77% 29.71 in 7.0 mi SW 5.8 mph - N/A   Scattered Clouds
2:34 AM 34.2 °F 28.2 °F 27.5 °F 77% 29.71 in 5.0 mi SW 6.9 mph - N/A   Haze
2:53 AM 33.8 °F 27.0 °F 27.3 °F 77% 29.71 in 5.0 mi SSW 8.1 mph - N/A   Haze
3:13 AM 33.1 °F 27.7 °F 27.1 °F 79% 29.70 in 5.0 mi SSW 5.8 mph - N/A   Haze
3:33 AM 32.5 °F 26.2 °F 27.0 °F 80% 29.71 in 5.0 mi SSW 6.9 mph - N/A   Haze
3:53 AM 34.2 °F 26.8 °F 28.4 °F 79% 29.71 in 5.0 mi SSW 9.2 mph - N/A   Haze
4:13 AM 34.2 °F 27.5 °F 28.6 °F 80% 29.70 in 5.0 mi SSW 8.1 mph - N/A   Haze
4:33 AM 34.2 °F 27.5 °F 29.1 °F 82% 29.70 in 4.0 mi SSW 8.1 mph - N/A   Haze
4:53 AM 35.1 °F 27.9 °F 29.8 °F 81% 29.70 in 5.0 mi SSW 9.2 mph - N/A   Haze
5:13 AM 34.9 °F 27.7 °F 29.8 °F 82% 29.69 in 4.0 mi SSW 9.2 mph - N/A   Haze
5:33 AM 35.6 °F 28.6 °F 30.2 °F 81% 29.69 in 5.0 mi SSW 9.2 mph - N/A   Haze
5:53 AM 35.6 °F 29.9 °F 30.2 °F 81% 29.69 in 5.0 mi SSW 6.9 mph - N/A   Haze
6:13 AM 35.6 °F 29.9 °F 30.2 °F 81% 29.69 in 5.0 mi SSW 6.9 mph - N/A   Haze
6:33 AM 35.6 °F 29.9 °F 30.2 °F 81% 29.68 in 5.0 mi SSW 6.9 mph - N/A   Haze
6:53 AM 35.8 °F 29.4 °F 30.2 °F 80% 29.68 in 5.0 mi SSW 8.1 mph - N/A   Haze
7:13 AM 36.0 °F 29.0 °F 30.4 °F 80% 29.68 in 5.0 mi SSW 9.2 mph - N/A   Haze
7:33 AM 36.1 °F 32.3 °F 30.2 °F 79% 29.67 in 5.0 mi South 4.6 mph - N/A   Haze
7:53 AM 36.1 °F 31.4 °F 30.6 °F 80% 29.67 in 4.0 mi South 5.8 mph - N/A   Haze
8:13 AM 36.5 °F 30.3 °F 30.7 °F 80% 29.67 in 4.0 mi South 8.1 mph - N/A Snow Light Snow
8:33 AM 36.7 °F 31.2 °F 31.1 °F 80% 29.67 in 5.0 mi South 6.9 mph - N/A   Overcast
8:53 AM 36.5 °F 29.7 °F 31.8 °F 83% 29.66 in 4.0 mi SSE 9.2 mph - N/A   Overcast
9:13 AM 37.2 °F 30.0 °F 32.0 °F 81% 29.66 in 5.0 mi South 10.4 mph - N/A   Haze
9:33 AM 37.4 °F 29.3 °F 32.0 °F 81% 29.65 in 5.0 mi SSE 12.7 mph - N/A   Haze
9:53 AM 37.6 °F 30.0 °F 32.0 °F 80% 29.64 in 5.0 mi SSE 11.5 mph - N/A   Haze
10:14 AM 38.5 °F 32.1 °F 32.0 °F 78% 29.63 in 7.0 mi SSE 9.2 mph - N/A   Overcast
10:33 AM 39.6 °F 32.5 °F 31.8 °F 74% 29.63 in 7.0 mi South 11.5 mph - N/A   Overcast
10:53 AM 40.8 °F 33.7 °F 32.0 °F 71% 29.62 in 10.0 mi South 12.7 mph - N/A   Overcast
11:13 AM 41.9 °F 35.0 °F 32.0 °F 68% 29.62 in 7.0 mi SSW 12.7 mph - N/A   Scattered Clouds
11:33 AM 42.4 °F 34.7 °F 31.8 °F 66% 29.62 in 10.0 mi SW 16.1 mph 20.7 mph N/A   Mostly Cloudy
11:53 AM 42.8 °F 35.8 °F 31.3 °F 64% 29.62 in 10.0 mi SW 13.8 mph 23.0 mph N/A   Overcast
12:13 PM 42.8 °F 35.8 °F 31.3 °F 64% 29.62 in 10.0 mi SW 13.8 mph - N/A   Overcast
12:33 PM 42.4 °F 35.3 °F 31.1 °F 64% 29.62 in 10.0 mi SW 13.8 mph 19.6 mph N/A   Overcast
12:53 PM 42.1 °F 33.6 °F 31.5 °F 66% 29.62 in 10.0 mi SW 18.4 mph 25.3 mph N/A   Overcast
1:13 PM 41.7 °F 33.7 °F 31.5 °F 67% 29.62 in 10.0 mi SW 16.1 mph 28.8 mph N/A   Overcast
1:33 PM 42.1 °F 34.9 °F 31.8 °F 67% 29.61 in 10.0 mi SW 13.8 mph 21.9 mph N/A   Overcast
1:53 PM 42.1 °F 35.2 °F 31.6 °F 67% 29.61 in 10.0 mi SW 12.7 mph - N/A   Overcast
2:13 PM 41.9 °F 35.0 °F 31.5 °F 66% 29.61 in 10.0 mi SW 12.7 mph - N/A   Overcast
2:33 PM 41.0 °F 32.8 °F 32.0 °F 70% 29.61 in 5.0 mi WSW 16.1 mph 19.6 mph N/A   Light Drizzle
2:53 PM 40.6 °F 32.3 °F 32.0 °F 71% 29.62 in 7.0 mi WSW 16.1 mph 20.7 mph N/A   Light Drizzle
3:13 PM 40.1 °F 31.3 °F 32.0 °F 73% 29.62 in 7.0 mi SW 17.3 mph 23.0 mph N/A   Light Drizzle
3:33 PM 40.1 °F 31.6 °F 32.7 °F 75% 29.62 in 10.0 mi SW 16.1 mph 23.0 mph N/A Rain Light Rain
3:53 PM 39.4 °F 30.4 °F 32.9 °F 78% 29.62 in 10.0 mi SW 17.3 mph 26.5 mph N/A Rain Light Rain
4:13 PM 38.7 °F 29.1 °F 32.9 °F 80% 29.62 in 5.0 mi WSW 18.4 mph 26.5 mph N/A Rain Light Rain
4:33 PM 38.3 °F 29.0 °F 33.1 °F 81% 29.63 in 5.0 mi WSW 17.3 mph 28.8 mph N/A   Unknown
4:53 PM 38.3 °F 29.0 °F 33.1 °F 81% 29.64 in 5.0 mi WSW 17.3 mph 26.5 mph N/A   Overcast
5:13 PM 38.1 °F 28.8 °F 33.1 °F 82% 29.64 in 5.0 mi WSW 17.3 mph 25.3 mph N/A   Overcast
5:33 PM 37.8 °F 28.3 °F 33.3 °F 84% 29.66 in 5.0 mi WSW 17.3 mph 23.0 mph N/A   Overcast
5:54 PM 38.3 °F 28.1 °F 33.4 °F 83% 29.67 in 5.0 mi West 20.7 mph 29.9 mph N/A   Overcast
6:13 PM 37.9 °F 27.3 °F 33.4 °F 84% 29.68 in 7.0 mi West 21.9 mph 26.5 mph N/A   Overcast
6:33 PM 37.4 °F 26.9 °F 32.9 °F 84% 29.69 in 3.0 mi West 20.7 mph 26.5 mph N/A   Overcast
6:53 PM 36.7 °F 26.6 °F 32.0 °F 83% 29.70 in 5.0 mi West 18.4 mph 32.2 mph N/A Snow Light Snow
7:13 PM 36.5 °F 25.4 °F 32.0 °F 84% 29.71 in 5.0 mi West 21.9 mph 29.9 mph N/A Snow Light Snow
7:33 PM 36.5 °F 24.7 °F 32.0 °F 84% 29.72 in 10.0 mi West 25.3 mph 32.2 mph N/A   Overcast
7:54 PM 36.5 °F 25.2 °F 31.8 °F 83% 29.73 in 10.0 mi West 23.0 mph 29.9 mph N/A Snow Light Snow
8:13 PM 36.5 °F 26.3 °F 31.6 °F 83% 29.75 in 10.0 mi West 18.4 mph 31.1 mph N/A   Overcast
8:34 PM 36.5 °F 26.7 °F 31.3 °F 81% 29.76 in 7.0 mi West 17.3 mph 26.5 mph N/A Snow Light Snow
8:53 PM 36.0 °F 25.3 °F 31.6 °F 84% 29.77 in 4.0 mi West 19.6 mph 26.5 mph N/A Snow Light Snow
9:13 PM 36.0 °F 25.6 °F 30.7 °F 81% 29.79 in 10.0 mi West 18.4 mph 26.5 mph N/A Snow Light Snow
9:34 PM 35.6 °F 25.9 °F 29.1 °F 77% 29.80 in 10.0 mi WNW 16.1 mph 25.3 mph N/A   Overcast
9:53 PM 35.1 °F 25.9 °F 27.5 °F 74% 29.81 in 10.0 mi WNW 13.8 mph 23.0 mph N/A   Overcast
10:14 PM 34.7 °F 25.5 °F 26.8 °F 73% 29.82 in 10.0 mi NW 13.8 mph 17.3 mph N/A   Overcast
10:33 PM 34.3 °F 25.0 °F 26.4 °F 73% 29.82 in 10.0 mi NW 13.8 mph - N/A   Overcast
10:54 PM 34.2 °F 25.2 °F 26.2 °F 73% 29.83 in 10.0 mi WNW 12.7 mph 18.4 mph N/A   Overcast
11:13 PM 33.8 °F 25.3 °F 25.7 °F 72% 29.84 in 10.0 mi WNW 11.5 mph 16.1 mph N/A   Overcast
11:33 PM 33.6 °F 25.6 °F 25.3 °F 72% 29.86 in 10.0 mi WNW 10.4 mph - N/A   Overcast
11:53 PM 32.7 °F 21.8 °F 23.2 °F 68% 29.86 in 10.0 mi WNW 17.3 mph 21.9 mph N/A   Mostly Cloudy